,,Stat1,,Stat2,,Stat3,,Stat4,,Wind1,,Wind1,
time,status,PR1M_SUM,status,RH1M_AVG,status,SR1M_AVG,status,TA1M_AVG,status,W1dAve1m,status,W1sAve1m,
2000-02-01, 00:00:00,VALID,0,VALID,83.243,VALID,-0.0339617,VALID,20.7677,VALID,154,VALID,1.9959,
2000-02-01, 00:01:00,VALID,0,VALID,83.669,VALID,0,VALID,20.7486,VALID,125,VALID,1.44827,
2000-02-01, 00:02:00,VALID,0,VALID,83.4516,VALID,0,VALID,20.7362,VALID,147,VALID,1.23496,
2000-02-01, 00:03:00,VALID,0,VALID,83.1998,VALID,0,VALID,20.7265,VALID,123,VALID,1.79413,
2000-02-01, 00:04:00,VALID,0,VALID,82.9862,VALID,0,VALID,20.7227,VALID,126,VALID,1.90625,
2000-02-01, 00:05:00,VALID,0,VALID,83.1528,VALID,-0.0169808,VALID,20.7489,VALID,148,VALID,1.82751,
2000-02-01, 00:06:00,VALID,0,VALID,82.7662,VALID,-0.0169808,VALID,20.7459,VALID,155,VALID,1.9502,
2000-02-01, 00:07:00,VALID,0,VALID,82.1253,VALID,-0.0169808,VALID,20.7712,VALID,139,VALID,1.97946,
2000-02-01, 00:08:00,VALID,0,VALID,82.3364,VALID,-0.0169808,VALID,20.8065,VALID,177,VALID,2.18092,
2000-02-01, 00:09:00,VALID,0,VALID,82.2728,VALID,0,VALID,20.8068,VALID,152,VALID,2.14473,
2000-02-01, 00:10:00,VALID,0,VALID,82.5068,VALID,-0.0169808,VALID,20.7938,VALID,140,VALID,2.1276,
2000-02-01, 00:11:00,VALID,0,VALID,82.1914,VALID,-0.0169808,VALID,20.7941,VALID,157,VALID,2.48438,
2000-02-01, 00:12:00,VALID,0,VALID,82.7382,VALID,-0.0169808,VALID,20.7745,VALID,148,VALID,1.4373,
2000-02-01, 00:13:00,VALID,0,VALID,82.4712,VALID,-0.0169808,VALID,20.7586,VALID,151,VALID,1.66596,
2000-02-01, 00:14:00,VALID,0,VALID,82.5627,VALID,-0.0339617,VALID,20.7618,VALID,155,VALID,2.12458,
2000-02-01, 00:15:00,VALID,0,VALID,82.7153,VALID,0.0679233,VALID,20.7411,VALID,140,VALID,1.8493,
2000-02-01, 00:16:00,VALID,0,VALID,82.4216,VALID,0.0849042,VALID,20.7346,VALID,160,VALID,1.23574,
2000-02-01, 00:17:00,VALID,0,VALID,82.4458,VALID,0.0849042,VALID,20.718,VALID,158,VALID,1.87812,
2000-02-01, 00:18:00,VALID,0,VALID,82.4597,VALID,0.0509425,VALID,20.7446,VALID,182,VALID,2.58553,
2000-02-01, 00:19:00,VALID,0,VALID,82.5475,VALID,0.0679233,VALID,20.7214,VALID,163,VALID,2.26152,
2000-02-01, 00:20:00,VALID,0,VALID,82.7153,VALID,0.0849042,VALID,20.7147,VALID,106,VALID,2.88822,
2000-02-01, 00:21:00,VALID,0,VALID,82.7713,VALID,0.101885,VALID,20.7155,VALID,121,VALID,2.2463,
2000-02-01, 00:22:00,VALID,0,VALID,82.3033,VALID,0.101885,VALID,20.7152,VALID,140,VALID,1.60697,
2000-02-01, 00:23:00,VALID,0,VALID,82.3186,VALID,0.0509425,VALID,20.7214,VALID,193,VALID,1.96896,
2000-02-01, 00:24:00,VALID,0,VALID,82.6848,VALID,0.0679233,VALID,20.7249,VALID,157,VALID,1.7954,
2000-02-01, 00:25:00,VALID,0,VALID,82.9531,VALID,0.0509425,VALID,20.7125,VALID,128,VALID,1.52549,
2000-02-01, 00:26:00,VALID,0,VALID,83.0854,VALID,0.0509425,VALID,20.6894,VALID,142,VALID,1.02168,
2000-02-01, 00:27:00,VALID,0,VALID,83.3015,VALID,0.0339617,VALID,20.6573,VALID,123,VALID,1.31228,
2000-02-01, 00:28:00,VALID,0,VALID,83.0688,VALID,0.0679233,VALID,20.6417,VALID,131,VALID,1.58738,
2000-02-01, 00:29:01,VALID,0,VALID,83.0218,VALID,0.101885,VALID,20.6407,VALID,127,VALID,2.16523,
2000-02-01, 00:30:00,VALID,0,VALID,82.8717,VALID,-0.0339617,VALID,20.6417,VALID,165,VALID,1.83694,
2000-02-01, 00:31:00,VALID,0,VALID,83.0294,VALID,0,VALID,20.6455,VALID,170,VALID,2.3493,
2000-02-01, 00:32:00,VALID,0,VALID,83.2367,VALID,-0.0509425,VALID,20.633,VALID,157,VALID,2.13982,
2000-02-01, 00:33:00,VALID,0,VALID,83.2965,VALID,-0.0509425,VALID,20.6104,VALID,173,VALID,1.10938,
2000-02-01, 00:34:00,VALID,0,VALID,83.1973,VALID,-0.0849042,VALID,20.6075,VALID,156,VALID,1.20693,
2000-02-01, 00:35:00,VALID,0,VALID,83.2163,VALID,-0.0509425,VALID,20.6104,VALID,130,VALID,1.59519,
2000-02-01, 00:36:00,VALID,0,VALID,82.9124,VALID,-0.0679233,VALID,20.6266,VALID,160,VALID,1.46152,
2000-02-01, 00:37:00,VALID,0,VALID,83.0434,VALID,-0.0339617,VALID,20.6328,VALID,175,VALID,2.08527,
2000-02-01, 00:38:00,VALID,0,VALID,82.9175,VALID,-0.0339617,VALID,20.6365,VALID,158,VALID,1.35033,
2000-02-01, 00:39:01,VALID,0,VALID,83.2558,VALID,-0.0509425,VALID,20.6425,VALID,114,VALID,1.63281,
2000-02-01, 00:40:00,VALID,0,VALID,83.416,VALID,-0.0849042,VALID,20.6395,VALID,125,VALID,1.91627,
2000-02-01, 00:41:00,VALID,0,VALID,82.5373,VALID,-0.101885,VALID,20.6233,VALID,121,VALID,1.49507,
2000-02-01, 00:42:00,VALID,0,VALID,82.7586,VALID,-0.0509425,VALID,20.6718,VALID,158,VALID,0.913061,
2000-02-01, 00:43:00,VALID,0,VALID,82.5182,VALID,-0.0169808,VALID,20.6748,VALID,174,VALID,1.23353,
2000-02-01, 00:44:00,VALID,0,VALID,82.9544,VALID,-0.0679233,VALID,20.6683,VALID,148,VALID,1.09692,
2000-02-01, 00:45:00,VALID,0,VALID,83.4262,VALID,0.0679233,VALID,20.6571,VALID,117,VALID,1.31127,
2000-02-01, 00:46:00,VALID,0,VALID,83.0854,VALID,0.0679233,VALID,20.628,VALID,153,VALID,1.75742,
2000-02-01, 00:47:00,VALID,0,VALID,83.2341,VALID,0.0679233,VALID,20.628,VALID,119,VALID,2.19821,
2000-02-01, 00:48:00,VALID,0,VALID,83.3575,VALID,0.0849042,VALID,20.6188,VALID,154,VALID,0.601151,
2000-02-01, 00:49:00,VALID,0,VALID,83.0638,VALID,0.0509425,VALID,20.6218,VALID,214,VALID,0.838867,
2000-02-01, 00:50:00,VALID,0,VALID,83.5177,VALID,0.0679233,VALID,20.6148,VALID,201,VALID,0.59375,
2000-02-01, 00:51:00,VALID,0,VALID,83.5266,VALID,0.0509425,VALID,20.5989,VALID,213,VALID,1.4928,
2000-02-01, 00:52:00,VALID,0,VALID,83.444,VALID,0.0509425,VALID,20.5728,VALID,198,VALID,1.44111,
2000-02-01, 00:53:00,VALID,0,VALID,83.9628,VALID,0.0339617,VALID,20.5669,VALID,132,VALID,1.97551,
2000-02-01, 00:54:00,VALID,0,VALID,84.2171,VALID,0.0849042,VALID,20.5152,VALID,158,VALID,2.25422,
2000-02-01, 00:55:00,VALID,0,VALID,84.3163,VALID,0.0169808,VALID,20.4764,VALID,188,VALID,2.44572,
2000-02-01, 00:56:00,VALID,0,VALID,83.0231,VALID,0.0679233,VALID,20.4866,VALID,206,VALID,2.5375,
2000-02-01, 00:57:00,VALID,0,VALID,82.8196,VALID,0.0509425,VALID,20.5676,VALID,183,VALID,2.06808,
2000-02-01, 00:58:00,VALID,0,VALID,82.695,VALID,0.0849042,VALID,20.6255,VALID,144,VALID,2.6655,
2000-02-01, 00:59:00,VALID,0,VALID,81.8328,VALID,0.0339617,VALID,20.68,VALID,123,VALID,1.95176,
2000-02-01, 01:00:00,VALID,0,VALID,82.0833,VALID,-0.0679233,VALID,20.7429,VALID,191,VALID,2.03025,
2000-02-01, 01:01:00,VALID,0,VALID,82.4419,VALID,-0.0509425,VALID,20.7303,VALID,187,VALID,2.16468,
2000-02-01, 01:02:00,VALID,0,VALID,82.8552,VALID,-0.0509425,VALID,20.7014,VALID,173,VALID,2.03145,
2000-02-01, 01:03:00,VALID,0,VALID,83.1528,VALID,-0.0679233,VALID,20.6497,VALID,150,VALID,1.67568,
2000-02-01, 01:04:00,VALID,0,VALID,83.0053,VALID,-0.0339617,VALID,20.6107,VALID,148,VALID,2.59417,
2000-02-01, 01:05:00,VALID,0,VALID,83.1464,VALID,-0.0339617,VALID,20.5975,VALID,141,VALID,2.853,
2000-02-01, 01:06:00,VALID,0,VALID,83.0816,VALID,-0.0509425,VALID,20.5811,VALID,141,VALID,2.21465,
2000-02-01, 01:07:00,VALID,0,VALID,82.8806,VALID,0,VALID,20.5875,VALID,151,VALID,1.65045,
2000-02-01, 01:08:00,VALID,0,VALID,82.9964,VALID,-0.0509425,VALID,20.6069,VALID,162,VALID,1.75946,
2000-02-01, 01:09:00,VALID,0,VALID,83.1896,VALID,-0.0339617,VALID,20.6077,VALID,184,VALID,1.2168,
2000-02-01, 01:10:00,VALID,0,VALID,83.3562,VALID,-0.0339617,VALID,20.5776,VALID,195,VALID,1.42488,
2000-02-01, 01:11:00,VALID,0,VALID,83.3181,VALID,-0.0679233,VALID,20.5687,VALID,201,VALID,1.76871,
2000-02-01, 01:12:00,VALID,0,VALID,83.0612,VALID,-0.0509425,VALID,20.5557,VALID,167,VALID,1.6272,
2000-02-01, 01:13:00,VALID,0,VALID,83.4783,VALID,-0.0679233,VALID,20.5754,VALID,131,VALID,1.13281,
2000-02-01, 01:14:00,VALID,0,VALID,83.238,VALID,-0.0679233,VALID,20.566,VALID,209,VALID,1.66448,
2000-02-01, 01:15:00,VALID,0,VALID,83.2291,VALID,-0.0169808,VALID,20.559,VALID,208,VALID,1.79235,
2000-02-01, 01:16:00,VALID,0,VALID,83.1604,VALID,0,VALID,20.5619,VALID,221,VALID,1.78496,
2000-02-01, 01:17:00,VALID,0,VALID,83.1553,VALID,-0.0849042,VALID,20.5649,VALID,163,VALID,1.84665,
2000-02-01, 01:18:00,VALID,0,VALID,83.3104,VALID,-0.0169808,VALID,20.5819,VALID,187,VALID,1.78392,
2000-02-01, 01:19:00,VALID,0,VALID,83.21,VALID,-0.0509425,VALID,20.5749,VALID,202,VALID,2.29316,
2000-02-01, 01:20:00,VALID,0,VALID,83.346,VALID,-0.0679233,VALID,20.5657,VALID,217,VALID,1.46254,
2000-02-01, 01:21:00,VALID,0,VALID,83.4567,VALID,-0.0509425,VALID,20.5423,VALID,169,VALID,1.3565,
2000-02-01, 01:22:00,VALID,0,VALID,83.669,VALID,-0.0169808,VALID,20.5364,VALID,153,VALID,1.84736,
2000-02-01, 01:23:00,VALID,0,VALID,83.9005,VALID,-0.0339617,VALID,20.517,VALID,184,VALID,1.76731,
2000-02-01, 01:24:01,VALID,0,VALID,84.0111,VALID,-0.0339617,VALID,20.4779,VALID,182,VALID,0.651394,
2000-02-01, 01:25:00,VALID,0,VALID,84.0391,VALID,-0.0509425,VALID,20.465,VALID,206,VALID,0.746299,
2000-02-01, 01:26:00,VALID,0,VALID,83.8687,VALID,0,VALID,20.4618,VALID,212,VALID,1.07715,
2000-02-01, 01:27:00,VALID,0,VALID,83.8318,VALID,0,VALID,20.4715,VALID,189,VALID,1.50647,
2000-02-01, 01:28:00,VALID,0,VALID,83.767,VALID,-0.0169808,VALID,20.4876,VALID,189,VALID,1.18832,
2000-02-01, 01:29:00,VALID,0,VALID,83.9844,VALID,0,VALID,20.4946,VALID,190,VALID,1.64277,
2000-02-01, 01:30:00,VALID,0,VALID,83.9106,VALID,-0.0339617,VALID,20.4747,VALID,199,VALID,1.32332,
2000-02-01, 01:31:00,VALID,0,VALID,83.9424,VALID,-0.0169808,VALID,20.468,VALID,234,VALID,0.577508,
2000-02-01, 01:32:00,VALID,0,VALID,83.9717,VALID,0,VALID,20.4709,VALID,118,VALID,0.444511,
2000-02-01, 01:33:00,VALID,0,VALID,84.0899,VALID,0,VALID,20.4777,VALID,142,VALID,0.453336,
2000-02-01, 01:34:01,VALID,0,VALID,84.0136,VALID,0,VALID,20.4744,VALID,137,VALID,1.50274,
2000-02-01, 01:35:01,VALID,0,VALID,84.1535,VALID,0.0169808,VALID,20.4647,VALID,182,VALID,1.31785,
2000-02-01, 01:36:00,VALID,0,VALID,83.9399,VALID,0,VALID,20.468,VALID,115,VALID,2.07813,
2000-02-01, 01:37:00,VALID,0,VALID,83.9183,VALID,0.0169808,VALID,20.4968,VALID,185,VALID,1.82232,
2000-02-01, 01:38:00,VALID,0,VALID,83.7212,VALID,0.0169808,VALID,20.5003,VALID,142,VALID,1.20683,
2000-02-01, 01:39:00,VALID,0,VALID,83.6881,VALID,0,VALID,20.513,VALID,195,VALID,1.2248,
2000-02-01, 01:40:00,VALID,0,VALID,83.6194,VALID,0,VALID,20.5194,VALID,198,VALID,1.89704,
2000-02-01, 01:41:00,VALID,0,VALID,83.9844,VALID,0,VALID,20.5164,VALID,157,VALID,2.51583,
2000-02-01, 01:42:00,VALID,0,VALID,83.5978,VALID,0,VALID,20.4874,VALID,191,VALID,2.27504,
2000-02-01, 01:43:00,VALID,0,VALID,83.6589,VALID,-0.0169808,VALID,20.5102,VALID,204,VALID,1.24345,
2000-02-01, 01:44:00,VALID,0,VALID,83.8229,VALID,0,VALID,20.5035,VALID,185,VALID,1.72128,
2000-02-01, 01:45:00,VALID,0,VALID,83.7809,VALID,0,VALID,20.4868,VALID,178,VALID,1.4118,
2000-02-01, 01:46:00,VALID,0,VALID,84.3023,VALID,0.0169808,VALID,20.4772,VALID,159,VALID,1.17422,
2000-02-01, 01:47:00,VALID,0,VALID,84.2413,VALID,-0.0169808,VALID,20.4615,VALID,188,VALID,1.08281,
2000-02-01, 01:48:00,VALID,0,VALID,84.2705,VALID,0,VALID,20.4386,VALID,226,VALID,1.93524,
2000-02-01, 01:49:00,VALID,0,VALID,83.9399,VALID,0,VALID,20.4384,VALID,184,VALID,2.25781,
2000-02-01, 01:50:00,VALID,0,VALID,83.9526,VALID,0,VALID,20.4744,VALID,162,VALID,1.82552,
2000-02-01, 01:51:00,VALID,0,VALID,84.1205,VALID,0,VALID,20.4941,VALID,193,VALID,1.44079,
2000-02-01, 01:52:00,VALID,0,VALID,84.7893,VALID,0,VALID,20.4583,VALID,169,VALID,1.28185,
2000-02-01, 01:53:00,VALID,0,VALID,84.8376,VALID,0.0169808,VALID,20.4063,VALID,208,VALID,1.06144,
2000-02-01, 01:54:00,VALID,0,VALID,84.7677,VALID,0,VALID,20.3778,VALID,217,VALID,0.918919,
2000-02-01, 01:55:00,VALID,0,VALID,84.8796,VALID,0,VALID,20.3646,VALID,215,VALID,1.04893,
2000-02-01, 01:56:00,VALID,0,VALID,84.6494,VALID,0,VALID,20.3551,VALID,219,VALID,1.22129,
2000-02-01, 01:57:00,VALID,0,VALID,84.8911,VALID,0,VALID,20.3385,VALID,169,VALID,0.997768,
2000-02-01, 01:58:00,VALID,0,VALID,85.0958,VALID,-0.0169808,VALID,20.3223,VALID,145,VALID,1.35629,
2000-02-01, 01:59:00,VALID,0,VALID,84.5553,VALID,0.0169808,VALID,20.3158,VALID,177,VALID,1.34023,
2000-02-01, 02:00:00,VALID,0,VALID,84.4956,VALID,0,VALID,20.3422,VALID,190,VALID,1.33514,
2000-02-01, 02:01:00,VALID,0,VALID,84.6622,VALID,-0.0339617,VALID,20.3419,VALID,167,VALID,1.00822,
2000-02-01, 02:02:00,VALID,0,VALID,84.6609,VALID,0,VALID,20.329,VALID,111,VALID,2.23097,
2000-02-01, 02:03:00,VALID,0,VALID,84.4231,VALID,0,VALID,20.3357,VALID,160,VALID,1.60135,
2000-02-01, 02:04:00,VALID,0,VALID,84.1319,VALID,0,VALID,20.3554,VALID,191,VALID,1.71959,
2000-02-01, 02:05:00,VALID,0,VALID,84.3379,VALID,-0.0169808,VALID,20.3683,VALID,190,VALID,1.47821,
2000-02-01, 02:06:00,VALID,0,VALID,84.0442,VALID,0,VALID,20.3554,VALID,212,VALID,2.30195,
2000-02-01, 02:07:00,VALID,0,VALID,83.9386,VALID,0,VALID,20.3974,VALID,195,VALID,1.85089,
2000-02-01, 02:08:01,VALID,0,VALID,84.212,VALID,-0.0169808,VALID,20.4039,VALID,213,VALID,1.4926,
2000-02-01, 02:09:00,VALID,0,VALID,84.2654,VALID,-0.0169808,VALID,20.3974,VALID,225,VALID,2.0084,
2000-02-01, 02:10:00,VALID,0,VALID,84.2451,VALID,0,VALID,20.3815,VALID,207,VALID,2.29147,
2000-02-01, 02:11:00,VALID,0,VALID,84.4129,VALID,0,VALID,20.3648,VALID,192,VALID,2.14762,
2000-02-01, 02:12:00,VALID,0,VALID,84.3366,VALID,0,VALID,20.3653,VALID,185,VALID,1.63562,
2000-02-01, 02:13:00,VALID,0,VALID,84.8745,VALID,0,VALID,20.3559,VALID,146,VALID,1.84544,
2000-02-01, 02:14:00,VALID,0,VALID,85.1759,VALID,0,VALID,20.287,VALID,177,VALID,2.21368,
2000-02-01, 02:15:00,VALID,0,VALID,84.7601,VALID,0,VALID,20.2652,VALID,234,VALID,2.51748,
2000-02-01, 02:16:00,VALID,0,VALID,85.0678,VALID,0.0169808,VALID,20.2709,VALID,178,VALID,1.80273,
2000-02-01, 02:17:00,VALID,0,VALID,85.1428,VALID,0,VALID,20.2647,VALID,197,VALID,1.35647,
2000-02-01, 02:18:00,VALID,0,VALID,85.1085,VALID,0,VALID,20.2522,VALID,190,VALID,1.75576,
2000-02-01, 02:19:01,VALID,0,VALID,84.872,VALID,0,VALID,20.2453,VALID,199,VALID,1.05117,
2000-02-01, 02:20:00,VALID,0,VALID,84.9508,VALID,0,VALID,20.2614,VALID,154,VALID,2.42107,
2000-02-01, 02:21:00,VALID,0,VALID,84.0632,VALID,0,VALID,20.2908,VALID,160,VALID,2.56127,
2000-02-01, 02:22:00,VALID,0,VALID,83.8343,VALID,0,VALID,20.3589,VALID,156,VALID,2.42248,
2000-02-01, 02:23:00,VALID,0,VALID,83.8229,VALID,-0.0169808,VALID,20.3942,VALID,160,VALID,1.95735,
2000-02-01, 02:24:00,VALID,0,VALID,83.6525,VALID,0,VALID,20.4106,VALID,182,VALID,2.59312,
2000-02-01, 02:25:00,VALID,0,VALID,83.3817,VALID,0,VALID,20.4429,VALID,136,VALID,3.49034,
2000-02-01, 02:26:00,VALID,0,VALID,83.5355,VALID,-0.0169808,VALID,20.4687,VALID,143,VALID,2.40117,
2000-02-01, 02:27:00,VALID,0,VALID,83.3397,VALID,0,VALID,20.4521,VALID,178,VALID,3.63728,
2000-02-01, 02:28:00,VALID,0,VALID,82.9519,VALID,-0.0169808,VALID,20.4742,VALID,150,VALID,3.95826,
2000-02-01, 02:29:01,VALID,0,VALID,82.2639,VALID,0,VALID,20.5358,VALID,136,VALID,2.61289,
2000-02-01, 02:30:01,VALID,0,VALID,81.8875,VALID,-0.0679233,VALID,20.5978,VALID,158,VALID,3.13101,
2000-02-01, 02:31:00,VALID,0,VALID,81.7654,VALID,-0.0849042,VALID,20.657,VALID,162,VALID,2.29461,
2000-02-01, 02:32:00,VALID,0,VALID,81.9613,VALID,-0.0849042,VALID,20.6726,VALID,97,VALID,1.16306,
2000-02-01, 02:33:00,VALID,0,VALID,82.2474,VALID,-0.0679233,VALID,20.6766,VALID,212,VALID,1.95798,
2000-02-01, 02:34:00,VALID,0,VALID,82.3631,VALID,-0.101885,VALID,20.6502,VALID,222,VALID,2.05469,
2000-02-01, 02:35:00,VALID,0,VALID,83.3549,VALID,-0.101885,VALID,20.6279,VALID,158,VALID,1.3088,
2000-02-01, 02:36:00,VALID,0,VALID,83.5342,VALID,-0.101885,VALID,20.5632,VALID,190,VALID,1.49551,
2000-02-01, 02:37:00,VALID,0,VALID,83.2596,VALID,-0.0679233,VALID,20.4919,VALID,249,VALID,0.805804,
2000-02-01, 02:38:00,VALID,0,VALID,83.7326,VALID,-0.101885,VALID,20.4795,VALID,222,VALID,2.03084,
2000-02-01, 02:39:00,VALID,0,VALID,84.062,VALID,-0.101885,VALID,20.4501,VALID,223,VALID,2.00703,
2000-02-01, 02:40:00,VALID,0,VALID,84.6749,VALID,-0.0679233,VALID,20.4014,VALID,215,VALID,1.79527,
2000-02-01, 02:41:01,VALID,0,VALID,84.8745,VALID,-0.0849042,VALID,20.3465,VALID,200,VALID,1.35609,
2000-02-01, 02:42:00,VALID,0,VALID,85.3844,VALID,-0.101885,VALID,20.2948,VALID,210,VALID,1.10777,
2000-02-01, 02:43:00,VALID,0,VALID,85.743,VALID,-0.0849042,VALID,20.2619,VALID,159,VALID,1.33193,
2000-02-01, 02:44:00,VALID,0,VALID,85.3755,VALID,-0.0849042,VALID,20.2301,VALID,235,VALID,1.4356,
2000-02-01, 02:45:00,VALID,0,VALID,85.1059,VALID,0,VALID,20.2229,VALID,230,VALID,1.9338,
2000-02-01, 02:46:00,VALID,0,VALID,84.8427,VALID,0.0169808,VALID,20.2353,VALID,226,VALID,1.47246,
2000-02-01, 02:47:00,VALID,0,VALID,84.6723,VALID,0.0169808,VALID,20.2706,VALID,226,VALID,0.981473,
2000-02-01, 02:48:00,VALID,0,VALID,85.0233,VALID,0.0339617,VALID,20.2771,VALID,205,VALID,0.774054,
2000-02-01, 02:49:00,VALID,0,VALID,84.6342,VALID,0.0169808,VALID,20.2674,VALID,206,VALID,1.3625,
2000-02-01, 02:50:00,VALID,0,VALID,84.7423,VALID,0,VALID,20.287,VALID,226,VALID,1.23017,
2000-02-01, 02:51:00,VALID,0,VALID,84.6087,VALID,0,VALID,20.2838,VALID,202,VALID,1.65193,
2000-02-01, 02:52:01,VALID,0,VALID,84.8834,VALID,0.0169808,VALID,20.2835,VALID,191,VALID,1.66346,
2000-02-01, 02:53:00,VALID,0,VALID,85.2077,VALID,0.0169808,VALID,20.2639,VALID,170,VALID,1.6609,
2000-02-01, 02:54:00,VALID,0,VALID,85.4722,VALID,0.0339617,VALID,20.2485,VALID,166,VALID,2.00992,
2000-02-01, 02:55:00,VALID,0,VALID,85.579,VALID,0.0169808,VALID,20.2124,VALID,184,VALID,2.32422,
2000-02-01, 02:56:00,VALID,0,VALID,85.0208,VALID,0.0339617,VALID,20.2221,VALID,167,VALID,1.72207,
2000-02-01, 02:57:00,VALID,0,VALID,84.9508,VALID,0,VALID,20.248,VALID,201,VALID,1.19219,
2000-02-01, 02:58:00,VALID,0,VALID,84.8148,VALID,0.0169808,VALID,20.2709,VALID,143,VALID,2.40502,
2000-02-01, 02:59:00,VALID,0,VALID,84.4396,VALID,0.0169808,VALID,20.3196,VALID,118,VALID,1.33535,
2000-02-01, 03:00:00,VALID,0,VALID,84.6024,VALID,0,VALID,20.3449,VALID,148,VALID,1.61278,
2000-02-01, 03:01:00,VALID,0,VALID,84.8923,VALID,0.0169808,VALID,20.3489,VALID,112,VALID,2.51151,
2000-02-01, 03:02:00,VALID,0,VALID,84.905,VALID,0,VALID,20.3064,VALID,154,VALID,1.63802,
2000-02-01, 03:03:00,VALID,0,VALID,85.0742,VALID,0.0169808,VALID,20.293,VALID,180,VALID,1.4413,
2000-02-01, 03:04:00,VALID,0,VALID,84.8516,VALID,0,VALID,20.2835,VALID,148,VALID,2.79181,
2000-02-01, 03:05:00,VALID,0,VALID,85.2446,VALID,0,VALID,20.2835,VALID,200,VALID,1.64083,
2000-02-01, 03:06:00,VALID,0,VALID,85.7735,VALID,0,VALID,20.2544,VALID,190,VALID,1.67539,
2000-02-01, 03:07:00,VALID,0,VALID,85.6082,VALID,0.0169808,VALID,20.2028,VALID,208,VALID,1.98348,
2000-02-01, 03:08:00,VALID,0,VALID,85.9732,VALID,0.0679233,VALID,20.1734,VALID,211,VALID,1.0479,
2000-02-01, 03:09:00,VALID,0,VALID,86.0558,VALID,0,VALID,20.1578,VALID,205,VALID,1.1748,
2000-02-01, 03:10:00,VALID,0,VALID,86.1983,VALID,0.0169808,VALID,20.1284,VALID,189,VALID,2.02264,
2000-02-01, 03:11:00,VALID,0,VALID,86.2186,VALID,0.0169808,VALID,20.116,VALID,198,VALID,1.76542,
2000-02-01, 03:12:00,VALID,0,VALID,86.5734,VALID,0,VALID,20.1031,VALID,218,VALID,1.72276,
2000-02-01, 03:13:00,VALID,0,VALID,86.6573,VALID,0.0169808,VALID,20.074,VALID,219,VALID,1.97698,
2000-02-01, 03:14:00,VALID,0,VALID,86.6637,VALID,0,VALID,20.031,VALID,220,VALID,2.02555,
2000-02-01, 03:15:00,VALID,0,VALID,86.3343,VALID,0.0169808,VALID,20.0285,VALID,209,VALID,2.20847,
2000-02-01, 03:16:00,VALID,0,VALID,86.3369,VALID,0.0679233,VALID,20.0347,VALID,204,VALID,2.62832,
2000-02-01, 03:17:00,VALID,0,VALID,85.8155,VALID,0.0169808,VALID,20.0477,VALID,213,VALID,2.70826,
2000-02-01, 03:18:00,VALID,0,VALID,85.9121,VALID,0,VALID,20.0762,VALID,215,VALID,1.53988,
2000-02-01, 03:19:00,VALID,0,VALID,86.0024,VALID,0,VALID,20.0934,VALID,215,VALID,1.5873,
2000-02-01, 03:20:00,VALID,0,VALID,86.1563,VALID,0,VALID,20.0904,VALID,182,VALID,1.90445,
2000-02-01, 03:21:00,VALID,0,VALID,85.963,VALID,0.0509425,VALID,20.0705,VALID,220,VALID,2.6102,
2000-02-01, 03:22:00,VALID,0,VALID,85.7507,VALID,0.0169808,VALID,20.067,VALID,221,VALID,2.23938,
2000-02-01, 03:23:00,VALID,0,VALID,86.0406,VALID,0,VALID,20.0899,VALID,208,VALID,0.911106,
2000-02-01, 03:24:01,VALID,0,VALID,86.2364,VALID,0,VALID,20.0907,VALID,194,VALID,1.53019,
2000-02-01, 03:25:00,VALID,0,VALID,85.9134,VALID,0,VALID,20.0675,VALID,216,VALID,2.40789,
2000-02-01, 03:26:00,VALID,0,VALID,85.6362,VALID,0,VALID,20.0837,VALID,224,VALID,3.08262,
2000-02-01, 03:27:00,VALID,0,VALID,85.8905,VALID,0.0169808,VALID,20.1028,VALID,200,VALID,2.24598,
2000-02-01, 03:28:00,VALID,0,VALID,86.2428,VALID,0,VALID,20.1001,VALID,201,VALID,1.69223,
2000-02-01, 03:29:00,VALID,0,VALID,85.9961,VALID,-0.0169808,VALID,20.074,VALID,196,VALID,2.09746,
2000-02-01, 03:30:00,VALID,0,VALID,85.771,VALID,-0.0169808,VALID,20.0678,VALID,202,VALID,2.62901,
2000-02-01, 03:31:00,VALID,0,VALID,85.9503,VALID,-0.0339617,VALID,20.0842,VALID,204,VALID,3.05284,
2000-02-01, 03:32:00,VALID,0,VALID,85.9071,VALID,-0.0509425,VALID,20.081,VALID,206,VALID,2.63121,
2000-02-01, 03:33:00,VALID,0,VALID,86.1461,VALID,-0.0169808,VALID,20.0845,VALID,179,VALID,1.79582,
2000-02-01, 03:34:01,VALID,0,VALID,86.2211,VALID,-0.0509425,VALID,20.0681,VALID,149,VALID,1.57432,
2000-02-01, 03:35:00,VALID,0,VALID,85.5764,VALID,-0.0509425,VALID,20.0618,VALID,202,VALID,2.75267,
2000-02-01, 03:36:00,VALID,0,VALID,84.2285,VALID,-0.0339617,VALID,20.1486,VALID,206,VALID,3.15664,
2000-02-01, 03:37:00,VALID,0,VALID,84.7321,VALID,-0.0509425,VALID,20.2428,VALID,137,VALID,3.48192,
2000-02-01, 03:38:00,VALID,0,VALID,85.1314,VALID,-0.0169808,VALID,20.2363,VALID,190,VALID,2.26789,
2000-02-01, 03:39:00,VALID,0,VALID,85.4328,VALID,-0.0339617,VALID,20.1908,VALID,199,VALID,1.02363,
2000-02-01, 03:40:00,VALID,0,VALID,85.4925,VALID,-0.0169808,VALID,20.1623,VALID,163,VALID,2.29006,
2000-02-01, 03:41:00,VALID,0,VALID,85.5307,VALID,-0.0169808,VALID,20.1294,VALID,144,VALID,2.9338,
2000-02-01, 03:42:00,VALID,0,VALID,85.5828,VALID,-0.0509425,VALID,20.1203,VALID,175,VALID,3.85577,
2000-02-01, 03:43:00,VALID,0,VALID,85.8473,VALID,-0.0169808,VALID,20.1133,VALID,194,VALID,2.11888,
2000-02-01, 03:44:00,VALID,0,VALID,86.1245,VALID,-0.0169808,VALID,20.0842,VALID,196,VALID,2.04962,
2000-02-01, 03:45:00,VALID,0,VALID,86.2695,VALID,-0.0509425,VALID,20.0522,VALID,209,VALID,2.04873,
2000-02-01, 03:46:00,VALID,0,VALID,86.2377,VALID,0,VALID,20.033,VALID,190,VALID,2.63164,
2000-02-01, 03:47:00,VALID,0,VALID,86.3699,VALID,-0.0339617,VALID,20.0161,VALID,182,VALID,2.24152,
2000-02-01, 03:48:00,VALID,0,VALID,86.6052,VALID,-0.0339617,VALID,19.997,VALID,189,VALID,1.29523,
2000-02-01, 03:49:00,VALID,0,VALID,86.6471,VALID,-0.0169808,VALID,19.9875,VALID,181,VALID,1.29238,
2000-02-01, 03:50:00,VALID,0,VALID,86.8124,VALID,0,VALID,19.9644,VALID,208,VALID,2.02865,
2000-02-01, 03:51:00,VALID,0,VALID,86.3585,VALID,-0.0169808,VALID,19.9579,VALID,213,VALID,2.81785,
2000-02-01, 03:52:00,VALID,0,VALID,86.2669,VALID,-0.0339617,VALID,20.0069,VALID,199,VALID,1.73017,
2000-02-01, 03:53:00,VALID,0,VALID,86.4844,VALID,-0.0509425,VALID,20.0203,VALID,177,VALID,1.41976,
2000-02-01, 03:54:00,VALID,0,VALID,86.272,VALID,-0.0339617,VALID,19.9967,VALID,152,VALID,1.45798,
2000-02-01, 03:55:00,VALID,0,VALID,86.4666,VALID,-0.0509425,VALID,20.0166,VALID,173,VALID,1.1472,
2000-02-01, 03:56:00,VALID,0,VALID,86.6662,VALID,-0.0679233,VALID,20.0072,VALID,184,VALID,1.74102,
2000-02-01, 03:57:00,VALID,0,VALID,86.9231,VALID,-0.0679233,VALID,19.9813,VALID,190,VALID,1.41652,
2000-02-01, 03:58:00,VALID,0,VALID,86.4475,VALID,-0.0169808,VALID,19.9686,VALID,185,VALID,2.43339,
2000-02-01, 03:59:00,VALID,0,VALID,85.9427,VALID,-0.0679233,VALID,19.9873,VALID,114,VALID,1.81211,
2000-02-01, 04:00:00,VALID,0,VALID,86.0584,VALID,-0.0339617,VALID,20.036,VALID,178,VALID,1.76663,
2000-02-01, 04:01:00,VALID,0,VALID,86.155,VALID,-0.0339617,VALID,20.0457,VALID,235,VALID,2.19531,
2000-02-01, 04:02:00,VALID,0,VALID,86.0457,VALID,-0.0339617,VALID,20.0323,VALID,216,VALID,1.52204,
2000-02-01, 04:03:00,VALID,0,VALID,86.23,VALID,-0.0339617,VALID,20.0524,VALID,223,VALID,1.28336,
2000-02-01, 04:04:00,VALID,0,VALID,86.4793,VALID,-0.0679233,VALID,20.0395,VALID,192,VALID,0.716427,
2000-02-01, 04:05:00,VALID,0,VALID,86.347,VALID,-0.0679233,VALID,20.0131,VALID,195,VALID,1.86678,